GFSSE_250_spd_000.txt.gz
Wind_Speed
18 9 12 11 8 20 13 26 31 31 34 36 38 39 37 40 51 47 53 59 60 61 65 45 38 29 21 14 11 6 6 4 6 8 7 8 5 5 6 6 6 8 9
20 15 17 19 19 23 28 28 34 33 36 29 39 40 40 46 55 57 55 61 65 61 53 43 42 32 22 10 8 3 3 8 11 7 3 5 5 5 7 6 5 5 5
26 24 22 23 26 31 35 36 36 40 32 40 43 39 45 43 56 55 60 59 57 54 47 43 37 24 15 7 6 1 4 13 10 6 3 4 3 6 5 5 4 2 3
28 26 28 23 26 31 33 35 34 40 39 41 45 47 50 58 57 58 56 50 44 41 35 34 29 16 6 6 5 2 7 15 12 5 3 5 2 9 7 3 3 1 2
27 25 27 28 30 35 38 40 36 39 45 45 52 51 50 57 58 53 42 37 31 28 25 30 25 11 5 6 5 6 12 15 17 13 8 5 8 11 10 6 4 3 4
27 25 27 30 28 31 38 40 42 39 43 46 49 49 52 54 48 40 37 33 27 20 27 23 23 11 7 5 8 11 17 18 16 14 9 7 3 9 7 4 6 2 4
32 37 35 39 41 41 41 45 46 44 47 51 51 50 47 38 36 31 28 20 19 24 26 21 19 7 0 4 8 14 21 20 19 14 12 10 4 2 5 4 4 3 1
36 41 40 35 35 36 39 43 45 49 47 41 37 31 30 31 30 25 16 14 19 23 24 19 15 2 3 6 7 11 18 23 18 16 16 12 6 3 5 7 0 1 1
30 33 36 38 41 43 45 42 38 31 27 24 25 25 26 26 23 19 14 18 21 22 23 17 15 3 4 6 5 12 23 22 21 20 19 11 5 3 6 5 2 1 3
36 36 34 32 31 28 25 22 19 20 22 23 23 21 20 20 20 17 14 16 17 19 21 15 14 5 3 6 4 12 24 20 14 19 13 8 5 4 5 5 3 2 2
20 21 21 19 17 16 14 16 18 20 20 19 19 20 20 19 16 12 12 10 13 15 20 15 11 6 4 5 3 7 23 20 18 15 11 8 8 3 4 4 4 4 2
10 9 9 9 11 13 15 16 16 17 16 18 19 21 18 17 14 11 9 11 13 11 13 16 13 4 4 2 3 3 10 21 21 17 17 11 9 5 3 3 6 6 5
10 11 11 12 14 15 15 16 17 18 19 19 21 22 19 16 15 12 9 12 12 11 11 13 13 10 6 5 5 2 4 14 20 19 17 16 17 12 10 7 7 8 7
11 11 12 12 12 12 12 12 12 14 16 19 20 20 18 14 14 11 12 11 11 10 14 12 14 13 11 7 11 10 7 8 19 24 21 20 18 17 14 11 9 9 9
11 9 7 6 6 8 11 13 14 16 19 17 14 15 18 16 15 14 15 14 14 18 19 15 19 20 15 14 11 12 14 14 16 17 23 24 22 22 20 17 17 12 8
4 2 2 5 6 6 9 12 13 15 14 15 18 17 17 16 17 20 23 26 32 30 31 31 29 28 25 19 17 16 19 21 21 20 21 23 25 25 26 22 21 17 11
7 8 8 9 9 9 10 10 15 17 17 21 22 20 19 21 21 21 25 27 29 30 32 30 27 27 30 28 24 22 22 25 27 29 25 25 24 28 27 25 23 21 15
8 8 10 11 12 12 12 13 13 15 17 20 21 24 26 30 32 32 31 30 33 36 35 35 30 30 30 32 31 28 27 26 31 30 29 28 25 26 29 28 25 22 20
14 15 15 16 16 14 14 15 16 16 18 19 20 22 23 26 29 32 33 39 40 42 40 37 36 34 34 33 33 35 33 32 32 33 33 32 29 28 28 27 28 26 23
11 12 13 13 14 14 16 17 18 19 21 22 21 20 22 21 20 24 28 33 36 40 43 43 42 40 39 37 37 35 36 39 37 37 36 38 32 29 30 30 28 29 26
12 14 14 13 14 15 17 18 19 20 23 25 26 28 27 29 28 30 34 34 34 36 37 41 43 41 42 41 39 38 38 39 41 41 38 39 39 33 30 32 29 30 31
14 14 15 18 17 18 20 21 22 24 25 28 30 31 32 34 35 36 40 38 39 40 39 38 40 42 40 43 43 42 40 41 41 45 45 40 42 37 32 34 33 34 33
14 15 16 17 19 20 22 23 26 28 28 30 32 33 35 37 40 41 43 42 45 47 42 40 38 40 42 44 44 45 46 43 42 44 47 47 43 42 38 36 40 40 40
15 17 20 23 23 25 26 26 26 27 29 33 36 38 39 39 40 43 46 50 51 54 51 45 40 39 41 43 46 46 47 49 48 44 47 49 49 48 46 41 43 45 44
19 20 21 23 24 26 28 30 31 32 36 37 39 42 44 47 49 50 52 53 55 59 56 55 48 40 40 42 45 47 48 50 50 53 45 50 54 51 51 49 46 46 49
23 23 23 26 28 29 30 31 33 34 37 39 40 42 45 48 50 51 54 57 58 62 61 64 57 50 42 42 42 46 49 50 51 53 55 48 52 57 57 55 51 49 50

GFSSE_250_spd_003.txt.gz
Wind_Speed
14 14 13 10 6 12 6 9 12 25 28 35 45 46 42 44 50 51 51 57 55 57 51 45 42 39 29 21 14 11 7 3 9 8 9 7 5 6 7 4 6 9 10
18 16 13 19 16 14 16 20 25 31 34 39 48 48 45 50 48 53 55 63 54 58 50 41 34 33 29 16 12 11 5 8 11 8 8 6 7 7 5 7 5 6 8
20 20 18 23 23 24 25 30 36 39 42 44 47 46 52 50 50 55 55 51 53 46 39 34 33 30 25 13 12 7 9 14 9 8 4 7 5 11 7 5 6 5 6
26 26 24 30 33 30 30 33 37 43 44 47 45 47 53 58 57 53 47 49 41 36 31 35 31 28 19 8 8 9 14 15 12 16 10 8 4 11 11 5 4 4 5
26 23 27 31 32 33 35 36 39 42 43 52 47 51 53 55 55 47 42 36 32 26 29 35 30 25 14 7 5 11 16 15 14 11 9 11 5 6 11 7 4 4 6
27 30 29 27 33 33 35 38 37 42 43 45 47 54 56 49 40 35 33 30 24 27 30 30 27 23 8 6 7 10 16 16 14 10 9 8 7 6 6 7 5 4 5
27 29 28 33 33 36 40 41 45 46 47 50 54 50 37 31 31 32 29 21 22 26 26 28 25 17 7 4 6 9 19 18 15 12 8 4 4 5 9 8 3 2 4
35 34 37 40 37 37 38 41 45 48 48 41 32 29 28 28 29 26 22 19 21 21 25 24 23 14 9 2 2 4 17 17 16 12 6 3 1 3 7 10 6 4 4
35 34 35 34 37 40 45 46 39 33 28 25 26 26 25 25 27 25 21 16 20 19 22 22 18 13 11 7 3 3 15 14 14 11 9 4 3 3 5 8 9 6 3
36 36 37 42 40 35 32 29 25 22 24 25 25 25 24 26 25 21 17 17 18 16 20 23 16 12 11 11 8 4 10 16 15 13 10 6 4 2 2 6 8 9 2
27 28 25 23 21 20 18 19 21 21 21 23 23 24 24 24 22 18 16 15 17 16 18 22 23 14 12 11 8 4 7 12 14 12 11 9 8 4 3 6 8 9 6
13 13 13 13 14 16 18 19 19 21 21 21 22 25 24 23 20 18 17 15 17 17 12 17 21 19 16 14 10 4 8 18 15 14 13 9 8 7 7 6 8 10 9
10 12 13 15 16 16 17 17 19 19 19 21 23 26 27 24 17 15 18 16 15 13 10 16 19 17 18 18 15 13 7 10 21 23 19 18 18 17 11 12 12 10 10
11 13 13 12 11 12 12 14 17 17 18 19 19 20 22 21 20 15 18 18 16 14 16 24 22 22 26 24 21 20 15 11 13 21 22 21 19 16 16 14 15 15 15
10 11 10 11 11 10 11 11 13 16 18 19 20 21 22 21 20 20 20 23 22 29 33 33 30 30 32 28 24 22 20 18 15 17 22 24 26 22 24 19 18 18 17
9 9 10 11 12 12 13 13 16 20 22 21 23 24 23 22 22 25 26 27 29 32 34 34 35 32 30 29 28 26 25 22 24 22 22 24 26 27 27 26 23 20 17
9 9 10 10 9 10 10 12 13 15 17 18 19 20 21 22 22 24 26 28 32 37 35 38 40 40 34 32 30 29 28 30 25 28 30 27 26 27 26 28 24 21 21
14 14 14 14 14 13 13 13 14 15 18 21 21 21 24 27 24 24 21 26 30 33 36 38 40 40 39 34 35 32 33 33 34 31 31 35 32 32 31 26 26 26 25
11 12 13 13 13 13 14 15 15 17 19 21 23 23 24 24 26 24 26 30 31 32 34 33 33 36 39 39 39 40 37 34 35 38 36 33 36 35 33 28 26 27 27
12 13 12 12 13 14 14 15 16 17 19 21 23 24 25 26 27 29 30 33 36 38 43 43 39 39 37 38 40 41 42 40 40 39 41 39 37 37 35 32 30 29 29
12 12 13 14 14 15 16 16 17 17 19 22 24 25 28 29 31 34 36 39 40 41 45 45 48 49 43 39 38 41 45 45 43 43 43 44 43 42 40 41 36 31 33
12 13 13 15 16 17 19 20 20 22 23 24 26 28 30 30 33 37 39 41 43 44 45 49 55 52 52 43 39 40 44 48 47 45 45 45 46 45 44 41 41 38 37
13 15 15 16 18 20 21 22 24 26 24 26 28 30 30 33 37 41 44 44 46 45 49 53 60 59 66 51 41 39 41 47 49 50 48 48 47 49 48 47 43 43 42
15 17 19 21 23 24 26 29 29 29 30 30 32 31 33 34 39 42 46 48 47 49 50 54 58 59 70 73 50 43 43 44 49 52 52 51 50 49 51 51 50 45 42
18 20 22 25 27 27 29 31 33 34 34 34 35 36 36 39 43 46 47 49 50 51 54 57 58 60 66 79 70 50 43 45 47 51 55 55 54 53 51 53 54 53 47
22 24 26 29 31 33 32 31 34 37 37 37 39 38 40 44 46 49 53 52 51 52 56 61 60 56 67 73 83 60 47 39 46 49 51 56 59 55 56 54 55 58 54

GFSSE_250_spd_006.txt.gz
Wind_Speed
19 18 12 15 13 14 16 12 19 14 19 29 29 31 41 49 56 54 59 61 63 52 42 41 37 41 36 28 17 15 10 4 9 9 9 10 10 7 8 5 8 10 10
20 19 15 19 21 17 17 14 26 36 32 30 31 39 49 56 58 56 58 58 46 41 38 37 39 38 35 26 14 12 5 11 12 13 12 11 10 9 7 9 7 9 9
19 21 18 18 22 26 27 23 33 29 36 34 44 49 52 59 56 57 54 43 38 36 36 36 37 35 31 22 12 3 8 14 14 12 14 14 8 13 9 6 5 6 7
19 22 24 27 30 28 32 34 37 36 38 43 43 46 48 55 55 49 40 36 35 30 35 34 34 34 28 15 7 5 11 14 13 10 11 10 7 4 9 4 2 2 4
20 24 29 32 29 32 35 32 33 34 40 44 48 48 47 54 45 38 36 35 27 31 32 34 33 31 24 13 2 7 13 14 12 9 10 7 13 14 8 8 4 5 4
22 22 26 28 33 33 35 32 37 40 41 45 45 51 52 41 33 33 32 26 23 28 31 32 31 27 23 15 4 11 15 14 9 7 7 9 9 12 13 11 7 5 5
20 22 26 30 33 33 38 39 41 39 43 46 47 38 31 30 29 29 29 23 21 25 28 30 26 25 22 16 5 8 15 10 9 4 7 7 6 10 13 13 9 6 6
31 30 33 35 36 38 38 39 41 43 44 38 30 27 26 26 27 28 25 19 20 19 25 26 24 24 21 17 11 3 9 6 8 5 4 3 4 7 9 13 11 6 6
26 29 33 34 37 37 39 44 41 36 28 24 25 25 25 26 28 28 21 18 19 19 21 24 26 22 21 19 15 11 10 6 7 7 2 2 1 4 6 10 12 10 5
30 32 34 34 35 36 32 26 23 20 21 22 24 25 24 24 25 24 18 17 18 19 17 23 24 24 22 21 17 13 7 8 7 6 5 5 3 2 5 9 10 12 7
22 24 24 22 20 17 17 18 19 20 21 20 19 19 21 24 23 18 16 16 17 17 14 17 21 21 21 22 26 15 10 7 9 7 5 6 7 4 2 5 9 10 10
10 12 12 13 15 16 17 17 18 19 20 21 20 19 21 20 20 21 17 17 16 17 15 15 21 21 21 21 25 18 19 11 13 12 7 8 9 7 6 6 8 9 10
9 11 13 15 16 16 15 14 15 16 19 20 21 21 22 24 25 22 20 18 19 19 19 20 30 30 24 22 22 22 19 19 16 15 18 15 13 14 15 9 10 8 9
10 12 13 13 14 14 14 15 15 15 18 20 21 23 23 18 20 20 20 20 21 22 25 29 32 33 28 26 23 20 22 19 19 14 17 21 23 20 17 13 13 13 11
7 7 7 9 10 11 11 12 13 16 18 19 20 20 19 19 17 20 21 22 23 25 28 31 32 32 32 31 30 25 21 22 20 21 17 18 22 23 21 18 17 15 17
6 7 8 9 10 13 13 13 17 17 19 20 19 21 23 21 20 20 19 25 26 26 29 30 29 29 30 32 29 29 28 24 23 23 24 23 24 24 25 25 23 22 16
14 13 14 14 14 14 14 16 15 16 18 20 20 20 20 22 23 21 19 26 27 29 33 34 38 38 36 29 28 30 29 29 28 27 26 25 28 28 27 24 23 23 22
13 13 14 13 13 14 14 14 15 15 17 19 20 21 22 22 23 24 25 28 30 31 33 37 40 48 46 42 35 28 30 34 32 31 33 32 30 31 31 31 27 22 22
13 14 14 14 13 14 14 14 15 16 17 19 20 20 21 22 25 28 30 31 33 33 35 37 37 42 47 58 47 36 33 32 35 36 35 36 36 33 32 35 33 29 24
14 14 14 14 14 15 15 14 15 14 16 17 19 20 21 22 24 28 31 34 35 36 35 37 39 40 45 47 60 50 34 35 36 38 39 38 36 38 37 35 36 33 28
12 12 11 13 14 15 14 15 16 19 19 18 21 23 23 24 25 30 34 35 37 36 36 38 44 41 44 49 46 60 58 32 35 40 41 42 41 40 40 40 37 36 33
11 11 11 13 14 15 16 18 19 20 23 22 21 23 25 27 29 31 35 36 40 42 41 43 46 48 47 52 57 52 63 60 33 36 43 46 45 44 43 42 42 40 40
10 11 12 13 15 19 20 22 24 26 26 27 28 29 29 30 30 33 36 38 41 45 45 45 47 47 51 52 58 58 60 67 57 34 38 46 50 49 48 45 44 45 43
12 13 14 16 19 22 23 25 27 29 31 31 32 34 33 34 33 35 38 39 41 45 47 46 48 48 50 53 59 59 57 67 71 49 34 40 48 53 53 50 48 47 48
15 17 19 21 24 26 25 26 29 30 32 34 35 37 35 36 34 37 38 41 43 43 49 49 50 51 51 53 61 61 54 60 68 71 41 31 41 51 55 55 54 51 51
21 24 26 26 26 28 28 29 31 35 37 37 37 39 40 39 37 41 43 44 47 44 50 48 50 52 49 54 60 63 56 51 65 70 56 39 31 41 51 56 58 57 55

GFSSE_250_spd_009.txt.gz
Wind_Speed
14 16 22 19 22 19 15 13 14 22 22 27 33 36 35 38 49 54 62 60 44 37 35 40 41 39 36 26 15 9 4 4 13 11 11 11 8 8 7 6 7 9 8
16 14 20 23 20 18 20 22 17 18 30 36 35 39 43 50 51 58 55 37 38 31 37 40 40 38 31 21 16 8 3 10 12 13 13 11 13 10 6 6 7 8 8
16 15 17 20 16 22 24 26 30 34 40 39 38 42 44 49 53 50 34 35 31 30 34 38 37 33 28 21 15 6 7 13 12 11 11 9 9 10 8 4 5 7 7
14 16 17 21 23 26 30 30 31 38 34 39 39 43 43 49 40 36 33 31 28 28 30 32 31 32 27 20 11 6 10 13 12 10 7 11 11 10 9 6 4 5 6
15 16 17 22 25 26 29 31 32 36 34 35 40 40 44 42 33 31 30 30 21 24 29 28 31 33 29 18 9 5 10 12 10 10 10 12 12 14 13 9 4 7 7
19 19 18 18 22 26 28 33 32 37 37 40 45 42 34 29 28 28 28 22 19 21 27 27 29 32 30 22 10 3 8 10 10 5 7 8 9 15 15 11 6 8 8
18 17 17 22 24 29 35 37 39 39 41 42 32 27 26 25 26 26 23 18 18 19 21 26 26 31 28 22 14 8 3 7 6 7 6 6 8 10 13 11 8 8 8
22 24 28 27 28 31 35 37 37 38 31 25 22 23 23 22 23 23 19 16 16 20 18 22 24 28 28 27 20 12 6 4 8 4 3 4 3 6 9 10 10 8 6
21 20 23 24 28 31 32 30 26 20 19 19 20 20 19 19 19 18 16 15 16 18 17 20 23 23 22 26 28 21 16 2 5 6 2 2 1 2 5 9 12 10 6
21 25 25 23 23 23 20 17 18 17 18 18 18 17 17 17 16 18 17 16 15 16 16 17 18 21 20 22 24 21 21 9 3 5 6 4 2 2 3 5 9 10 8
24 20 15 13 12 13 15 16 16 17 15 18 17 15 17 19 21 20 19 16 14 15 14 15 18 21 25 19 19 19 17 14 8 6 7 8 6 5 4 1 6 9 8
5 4 6 8 11 15 15 14 14 14 15 14 16 16 17 14 17 20 19 19 18 18 20 21 23 26 25 22 19 18 15 12 11 9 10 9 9 7 8 4 4 4 8
3 6 8 10 10 11 12 12 13 12 15 15 17 18 16 19 20 21 21 21 22 23 24 24 25 26 24 23 18 17 17 13 11 11 11 17 14 15 11 10 9 7 2
2 3 5 8 9 8 9 11 11 14 18 19 20 20 22 21 22 24 24 24 25 27 28 25 25 24 19 19 22 21 20 19 13 13 13 13 18 21 16 12 12 12 8
7 8 8 7 9 10 11 13 16 18 19 18 20 21 19 22 22 19 25 25 24 25 25 30 38 38 39 32 21 17 18 18 20 16 16 17 17 18 20 19 17 14 14
14 14 14 15 13 16 15 16 15 16 17 17 18 18 18 18 21 21 23 24 25 24 26 28 34 38 39 41 44 30 19 22 20 22 20 20 21 21 21 22 23 20 18
16 14 13 13 15 14 14 15 16 16 16 17 18 19 20 20 20 20 21 24 24 23 26 28 32 35 35 41 39 46 38 23 26 25 25 25 24 24 25 24 22 23 24
14 15 14 14 14 15 16 17 15 16 17 18 19 19 16 16 17 19 22 23 26 28 26 27 31 35 39 44 48 44 41 50 22 30 32 29 30 29 27 27 29 26 22
16 15 15 15 15 15 14 14 14 15 14 14 16 17 17 15 16 19 22 26 28 31 33 31 32 36 41 43 45 49 40 42 49 21 32 37 33 32 33 32 29 31 28
14 13 12 12 12 11 12 13 13 13 15 15 16 18 19 20 21 21 24 27 30 32 33 35 36 36 39 43 43 47 49 46 42 49 23 33 39 37 34 36 35 32 33
10 10 10 10 11 11 11 12 13 16 18 19 18 19 21 22 25 26 25 29 32 35 35 35 38 38 38 40 42 42 48 51 46 45 49 19 34 41 42 38 38 38 35
7 6 6 7 10 12 13 14 15 17 18 20 22 23 23 25 26 31 30 31 32 35 35 35 39 41 42 43 42 44 48 52 48 41 50 44 19 35 44 45 43 40 40
6 5 7 8 11 14 16 18 18 20 21 24 27 28 28 28 28 30 32 33 36 38 38 37 39 45 46 46 43 41 44 47 44 41 46 44 45 26 37 47 47 46 44
8 9 10 13 16 19 20 21 24 26 26 28 30 32 33 33 33 33 36 37 40 40 39 39 38 45 46 49 48 44 43 45 43 41 43 47 51 54 24 36 49 50 49
9 12 14 16 19 22 23 25 27 30 31 31 33 36 36 35 35 36 39 41 42 42 41 36 40 44 49 50 50 51 47 46 46 48 44 47 55 56 49 24 37 52 53
17 19 20 21 24 26 28 30 32 32 33 35 35 37 37 36 38 38 39 41 44 44 41 40 43 44 50 51 52 51 48 51 52 51 40 35 45 52 56 45 26 37 53

GFSSE_250_spd_015.txt.gz
Wind_Speed
11 16 19 25 33 34 28 29 29 28 34 24 35 32 36 44 39 38 28 22 16 20 24 28 23 21 24 17 17 21 22 20 16 11 7 7 7 7 5 6 5 6 4
20 21 27 33 32 26 22 24 25 27 33 41 35 37 40 43 36 24 21 21 14 20 24 28 26 25 24 18 22 22 20 16 13 11 13 11 6 6 5 4 6 5 5
24 26 27 27 22 21 24 27 35 26 25 36 38 40 40 38 25 22 21 15 11 18 23 26 28 27 23 18 17 22 17 15 14 12 15 12 8 7 4 3 3 4 4
23 22 22 22 23 25 25 28 29 29 31 35 40 39 32 26 21 20 17 10 8 14 18 23 30 29 22 15 13 13 11 12 13 13 14 15 13 10 6 3 4 3 4
19 18 15 17 21 22 24 27 27 30 34 38 36 28 24 22 19 16 9 7 10 12 15 17 24 28 25 14 9 8 5 8 7 7 9 12 13 11 8 4 4 7 6
19 20 20 21 22 23 27 28 31 32 32 31 21 22 22 19 16 11 10 10 11 10 10 14 20 24 27 21 10 6 4 4 3 5 3 6 10 11 9 5 6 7 5
19 20 22 24 22 24 27 28 28 27 21 18 19 18 17 13 12 10 10 10 11 10 9 13 18 20 23 21 15 3 2 2 3 2 1 2 5 8 9 5 3 5 4
21 21 24 22 25 24 24 24 21 14 15 15 14 12 11 13 13 13 11 11 11 13 11 15 16 19 19 18 14 11 3 6 5 5 3 3 4 4 5 7 3 2 2
19 21 21 21 21 22 20 13 11 11 11 12 9 10 12 13 14 14 15 14 14 14 16 17 17 16 17 14 12 9 6 4 11 9 7 3 6 2 2 4 6 3 2
19 19 18 19 19 15 8 8 8 8 9 10 10 11 12 13 15 16 18 20 22 26 28 28 27 22 16 12 11 10 6 1 6 11 14 12 9 6 4 3 6 7 4
16 18 18 13 9 6 5 4 5 8 9 12 13 13 16 20 20 21 22 24 27 27 32 31 27 33 34 23 12 10 11 9 4 10 13 16 12 9 9 6 4 4 8
11 8 5 5 6 4 1 5 10 13 14 16 18 17 18 19 20 21 22 20 22 23 27 28 30 30 30 30 34 13 12 12 9 14 14 14 16 16 13 12 9 5 6
4 5 6 7 3 6 9 12 14 15 16 15 16 15 14 17 18 19 21 23 23 24 28 28 32 32 28 29 20 29 32 14 20 17 18 18 19 18 18 17 14 11 8
7 6 6 6 8 15 16 17 15 14 14 14 13 14 15 16 19 22 22 22 22 23 28 28 29 32 30 24 27 27 34 33 12 23 20 21 20 24 23 18 21 17 15
5 7 10 15 17 17 14 15 14 13 15 16 15 14 14 17 18 19 20 19 21 23 28 29 25 31 30 28 23 26 30 38 30 22 22 21 23 23 26 24 22 21 18
13 15 17 18 16 15 15 15 15 15 16 15 13 12 12 14 17 19 19 18 22 25 27 31 33 29 28 31 30 30 29 33 34 33 26 19 27 26 27 26 28 24 23
14 15 16 15 16 14 14 14 11 11 11 12 12 13 15 16 18 19 19 20 21 23 26 28 32 30 28 28 29 31 32 32 34 36 31 25 17 35 31 31 28 33 27
14 14 14 14 14 13 12 12 11 10 11 12 13 14 16 17 19 20 21 22 23 25 26 26 29 29 29 29 31 30 34 36 35 34 34 35 33 17 37 33 33 30 28
15 14 14 13 12 10 9 10 10 11 14 16 16 16 18 19 21 21 22 22 24 25 27 28 29 28 28 27 30 31 34 37 38 38 35 38 37 38 18 40 36 36 34
15 12 10 9 7 7 6 7 9 13 14 15 17 18 20 21 22 23 23 23 24 25 27 27 28 28 28 27 29 28 31 35 38 41 37 37 40 42 31 21 42 40 38
12 10 9 7 6 4 5 7 10 11 15 17 19 21 22 22 23 23 24 24 23 25 25 28 29 31 31 29 27 28 26 34 40 48 42 36 40 40 36 30 27 43 43
9 7 5 4 1 3 7 11 13 14 16 19 21 22 22 22 22 23 23 26 27 30 31 32 32 35 32 28 25 28 23 30 39 45 48 41 41 42 36 35 33 29 41
6 5 5 5 4 6 10 13 15 16 18 20 21 23 23 23 23 25 28 29 31 33 36 37 37 35 31 27 27 30 26 29 35 38 45 44 43 48 45 36 29 27 16
8 8 8 6 7 10 13 16 17 20 21 21 22 24 24 25 27 29 30 34 37 39 38 37 36 29 32 26 29 32 32 38 35 42 37 48 46 49 44 34 33 21 19
12 10 8 9 11 14 16 18 20 22 23 24 25 25 26 29 31 33 36 38 38 40 39 35 34 30 33 30 30 30 36 39 39 39 44 47 50 53 44 35 31 24 15
15 14 15 14 16 18 19 21 23 24 25 25 25 28 31 33 36 38 41 42 43 40 39 35 31 34 35 32 33 37 42 41 36 38 47 43 49 54 46 42 32 24 21

GFSSE_250_spd_021.txt.gz
Wind_Speed
17 18 24 30 32 31 30 32 33 34 29 32 33 38 41 42 38 34 26 14 10 14 24 25 19 16 21 21 20 17 15 13 12 9 5 6 4 4 6 8 7 9 7
19 20 25 26 27 31 31 34 34 30 27 33 35 40 41 44 38 27 22 10 7 13 18 26 21 13 16 17 17 19 18 17 17 15 11 4 2 3 3 5 6 8 7
26 24 24 28 31 34 35 36 34 33 34 36 38 39 39 36 26 23 18 8 4 11 17 21 18 9 8 10 11 13 13 15 15 10 9 11 10 9 7 6 4 8 7
26 23 28 33 33 33 34 24 26 29 29 35 37 33 31 26 20 15 12 7 4 13 17 15 18 10 2 5 6 7 8 13 13 12 12 14 15 14 8 6 6 6 6
22 22 23 27 27 25 21 25 28 33 31 29 28 28 24 15 13 12 10 10 7 10 12 17 14 12 5 1 2 3 5 4 7 8 9 12 13 14 12 7 6 6 6
20 18 19 18 20 20 24 25 29 26 25 27 24 20 13 15 11 13 11 12 11 11 15 16 15 8 7 3 3 3 1 2 6 8 12 12 12 13 13 9 6 6 7
20 19 19 18 19 20 25 24 25 29 25 20 17 13 14 12 13 15 15 16 18 19 25 23 14 4 3 5 7 2 3 1 5 7 10 6 14 13 11 11 6 5 7
22 21 22 24 23 25 26 26 24 23 18 13 10 10 12 15 18 23 26 25 22 20 19 26 31 19 3 5 7 8 3 2 7 9 10 11 11 15 11 8 6 7 5
23 21 21 22 22 24 17 17 19 15 11 6 8 13 16 18 22 24 24 25 29 29 24 21 25 29 15 4 5 11 8 7 2 7 16 17 16 15 11 9 7 6 7
16 14 16 17 14 15 16 11 12 5 5 10 17 15 17 20 20 21 22 25 25 24 25 27 26 21 28 24 5 8 6 10 10 3 12 21 23 23 15 11 10 2 4
14 17 15 12 11 7 8 7 4 9 11 16 16 19 18 18 19 18 22 24 24 24 24 24 27 25 22 22 23 18 6 7 7 11 6 10 14 20 18 14 12 8 6
16 16 7 3 5 6 2 7 9 11 12 12 15 16 17 16 18 14 14 19 21 21 23 21 22 24 25 21 22 17 4 9 10 15 23 18 19 18 16 20 17 16 13
6 2 1 4 4 3 9 10 10 11 11 14 15 16 16 14 17 13 13 16 18 19 21 21 18 18 20 20 21 14 10 9 1 6 13 26 33 27 23 21 24 23 21
1 1 2 4 6 11 11 11 11 14 16 15 15 13 13 15 14 12 13 14 17 17 19 19 20 20 16 18 20 21 22 11 10 9 11 15 11 20 29 23 27 29 26
2 4 5 9 14 11 11 14 16 15 15 13 12 13 14 14 13 14 15 15 17 18 18 19 19 20 18 14 16 18 26 26 20 11 11 15 13 9 13 28 29 28 28
6 8 14 16 13 11 13 15 14 12 10 12 12 13 13 14 13 14 16 17 19 21 22 22 21 21 18 15 7 8 19 27 24 17 19 20 15 13 11 8 27 30 29
16 18 16 14 14 13 12 12 13 13 12 14 12 13 12 13 14 15 15 17 19 20 21 22 21 21 21 21 11 9 17 20 26 27 28 29 22 15 11 11 7 28 28
17 16 16 14 13 12 13 14 13 12 12 11 12 14 14 15 16 15 15 16 18 21 22 23 22 22 22 22 14 11 16 13 21 25 25 31 37 36 14 10 12 14 26
15 16 15 14 12 11 11 12 10 10 10 11 12 14 16 16 16 15 17 17 20 22 24 25 24 23 20 15 15 10 13 17 21 27 21 22 31 38 31 24 13 9 14
18 17 15 12 10 10 10 8 7 7 8 10 13 16 17 16 16 17 18 20 22 24 26 26 23 23 18 10 12 11 14 14 24 26 23 22 26 27 39 34 22 14 8
18 15 13 11 10 8 6 6 5 6 9 12 14 15 15 15 18 21 23 25 26 27 26 26 25 27 21 11 14 10 19 18 24 23 27 22 24 27 29 33 33 22 19
13 12 9 8 6 3 2 5 7 8 11 13 14 15 14 17 21 24 27 30 31 30 27 25 27 27 26 18 20 19 20 20 23 24 29 26 23 27 30 27 35 28 25
13 11 9 7 5 2 3 6 7 11 13 15 14 14 17 21 25 27 31 32 33 32 27 27 31 31 27 22 23 28 28 23 26 26 30 29 25 25 31 23 35 33 31
12 10 9 7 6 6 5 7 10 13 15 14 15 17 19 23 27 30 32 36 39 39 35 31 31 31 31 28 26 25 26 28 30 34 33 27 26 25 27 29 30 34 30
13 12 10 9 10 9 7 9 12 14 14 15 15 17 20 24 28 32 35 36 39 41 42 38 36 35 35 34 31 30 29 31 32 35 36 37 32 23 28 32 30 35 33
14 12 11 13 12 11 11 12 15 14 15 15 18 21 23 25 27 31 35 37 39 43 43 42 38 36 36 36 35 37 35 32 35 37 38 38 37 33 30 32 37 36 39

GFSSE_250_spd_024.txt.gz
Wind_Speed
15 19 23 26 31 35 36 37 37 35 40 37 37 39 41 40 34 32 23 12 10 13 20 21 11 16 18 16 15 15 16 15 13 8 4 5 6 8 7 6 6 8 9
20 23 24 22 25 33 33 34 36 38 33 31 34 35 38 35 29 25 16 8 8 16 21 19 11 8 14 14 16 16 14 13 11 11 12 12 11 10 9 10 9 10 8
24 27 24 21 28 32 33 34 35 28 30 35 35 35 32 27 20 14 12 7 8 15 19 17 14 6 5 9 10 12 14 12 9 11 13 14 14 12 11 9 9 11 9
25 25 26 25 29 35 36 35 23 25 30 31 29 29 25 16 16 12 9 6 7 12 14 17 12 9 2 3 5 7 7 8 8 9 12 15 16 15 13 12 12 11 11
23 23 22 21 23 21 18 20 24 25 28 31 27 25 17 15 11 11 9 8 10 13 14 11 9 5 4 4 2 3 3 6 9 7 9 13 15 16 15 11 10 10 11
21 19 18 18 19 17 16 21 23 22 26 26 26 17 13 10 9 15 17 14 16 20 21 16 4 2 2 1 6 5 1 4 7 8 11 15 14 14 15 13 9 8 10
22 21 20 21 20 19 22 26 27 25 22 22 15 8 10 13 20 19 20 17 15 12 20 26 16 2 5 5 2 2 3 4 4 3 12 6 15 18 15 14 12 9 8
23 21 23 24 23 21 22 22 18 18 17 14 7 9 14 17 18 22 22 24 22 22 22 26 31 17 6 6 4 1 6 7 8 4 4 12 17 17 18 14 12 10 9
21 22 20 16 14 16 15 12 12 13 9 6 10 12 15 16 19 18 21 20 22 22 23 26 24 25 13 4 2 3 2 7 5 7 14 13 14 14 20 15 14 10 6
23 21 15 15 12 9 8 7 8 6 11 13 12 14 14 14 16 18 19 21 22 22 21 23 21 19 20 10 2 4 2 6 6 12 18 14 16 18 14 20 15 10 5
18 15 13 14 6 5 6 6 8 13 14 15 13 13 14 12 11 15 16 20 19 18 16 18 20 20 20 15 6 7 8 8 10 13 15 13 12 18 15 19 17 15 9
11 11 10 1 3 5 7 9 10 12 12 12 14 13 12 11 9 12 15 18 17 16 16 15 14 14 12 13 8 10 8 5 11 10 15 21 24 26 30 17 17 20 15
3 2 3 2 6 9 11 9 8 10 11 13 12 9 10 9 10 12 13 15 16 16 14 14 14 11 11 13 17 16 18 11 8 11 11 13 15 23 28 31 28 23 23
4 4 5 8 11 12 11 10 14 14 13 11 8 10 10 11 11 12 13 14 16 16 16 15 16 15 10 7 14 14 19 17 16 12 11 16 18 15 13 13 23 22 26
4 7 11 15 14 12 13 16 15 14 10 10 9 10 11 11 12 13 15 15 17 18 16 17 16 13 10 3 5 14 15 18 17 14 19 16 15 14 12 12 15 21 22
8 12 17 16 13 13 14 14 12 12 10 9 8 10 11 12 14 13 15 16 16 19 19 21 21 19 14 10 5 8 9 12 21 17 20 24 24 13 14 18 17 19 17
17 21 18 16 15 14 13 14 14 12 11 9 10 13 16 17 17 16 16 17 20 24 25 23 22 21 18 12 2 2 9 10 17 14 15 19 29 25 22 18 18 15 20
22 19 18 18 15 15 14 13 11 9 8 10 13 15 17 17 17 17 19 22 23 24 24 23 22 24 19 12 8 5 8 10 16 19 17 13 18 25 29 21 19 13 11
19 20 20 17 16 15 13 10 6 7 9 10 13 14 14 15 16 18 22 24 25 25 23 20 20 22 21 16 14 10 15 16 17 19 17 13 16 17 22 28 19 17 12
20 19 19 17 16 13 10 7 5 6 8 10 12 13 13 16 19 20 24 26 29 29 25 24 25 24 23 17 16 19 21 20 17 19 19 13 15 17 19 26 25 28 16
19 19 17 15 13 10 8 4 4 5 9 11 11 12 12 15 19 22 23 27 28 31 27 25 27 28 24 23 18 23 24 21 19 20 22 20 11 14 15 18 25 23 29
21 17 13 13 10 7 4 3 4 6 8 9 9 10 12 15 19 21 26 27 30 32 31 31 28 28 29 29 21 19 24 23 18 23 24 23 26 17 14 14 17 23 25
19 16 15 13 9 5 3 1 3 6 8 9 10 11 13 17 19 23 26 30 31 34 35 34 34 31 28 27 28 25 24 24 24 24 27 25 26 26 23 14 16 22 22
14 13 11 10 8 8 5 4 5 9 9 10 11 11 15 17 20 25 28 29 32 32 35 36 36 35 33 29 30 29 30 28 27 28 28 26 27 29 29 25 21 23 25
15 14 11 10 10 9 7 7 8 11 12 13 13 12 15 18 21 24 26 28 30 33 34 37 37 35 34 32 29 30 31 29 30 31 32 30 29 27 30 26 26 22 20
15 14 12 12 11 11 10 10 12 14 16 16 14 14 16 19 22 25 27 30 31 32 34 34 36 35 33 33 32 31 31 32 32 32 34 34 33 34 29 26 27 25 29

GFSSE_250_spd_027.txt.gz
Wind_Speed
16 18 20 24 29 31 33 38 40 42 39 36 33 38 36 36 33 26 19 12 13 18 20 17 9 13 16 14 15 16 14 13 16 16 13 11 8 10 12 10 10 12 12
19 21 24 26 26 28 30 32 34 35 41 30 33 34 33 30 21 18 17 12 14 17 20 13 11 8 12 12 13 11 14 13 13 14 17 18 13 10 12 11 10 11 11
22 25 27 26 25 29 31 34 37 37 28 29 31 29 29 21 20 17 16 14 15 19 21 18 11 7 3 9 11 10 10 9 8 11 13 14 15 16 15 14 13 11 11
25 26 23 21 23 25 25 21 20 22 24 24 27 28 23 18 15 15 13 12 15 17 22 16 14 3 2 3 4 3 5 8 7 9 10 13 16 16 18 14 12 13 13
25 22 19 18 17 18 17 19 19 18 25 28 25 22 16 13 12 14 14 14 15 22 24 13 7 3 2 5 3 2 2 4 5 5 6 15 14 18 18 15 15 13 14
20 19 18 19 20 21 17 21 23 25 23 18 19 13 11 13 15 17 16 17 18 20 26 25 2 1 4 2 7 5 3 5 6 7 7 11 12 21 20 15 15 15 13
21 20 19 20 23 22 21 22 20 21 16 15 10 10 13 14 17 19 20 20 20 21 23 27 22 5 3 7 3 6 5 8 9 8 8 5 12 12 17 20 15 14 13
21 18 19 20 17 15 14 14 13 11 11 8 9 12 12 13 15 19 20 21 19 20 23 26 26 16 5 5 6 7 6 8 12 10 9 10 17 17 15 18 14 12 10
24 19 18 15 15 12 9 7 8 8 7 11 12 11 12 13 15 18 21 20 18 20 24 24 22 19 5 6 9 10 7 8 11 12 12 14 17 13 13 13 15 10 6
23 21 14 12 12 6 5 6 9 10 13 14 12 10 8 9 12 15 19 18 16 18 18 19 17 16 13 8 10 12 12 11 10 16 17 19 20 12 8 9 18 16 8
19 9 7 9 2 3 7 10 11 12 13 12 11 10 7 4 9 14 16 15 15 15 16 14 13 14 12 10 10 12 15 10 7 14 21 23 20 19 20 17 15 18 13
5 4 3 1 2 9 13 13 13 14 10 10 9 9 8 7 11 13 13 15 17 17 14 12 10 12 14 13 15 14 11 10 10 11 10 14 16 15 22 27 27 25 21
2 5 5 3 11 13 14 13 11 9 10 9 7 9 9 8 10 12 14 16 14 15 14 14 13 8 4 8 10 14 10 14 12 12 14 16 16 14 15 12 17 25 22
3 4 5 11 15 14 12 12 12 11 9 5 6 8 9 10 13 13 13 14 17 18 17 16 13 11 8 4 6 16 14 15 15 16 18 19 15 15 13 15 16 12 21
4 4 12 16 16 14 15 15 13 9 7 6 10 11 12 12 14 15 16 16 21 21 20 22 19 15 9 10 12 12 8 15 18 14 18 25 23 19 13 15 15 15 14
4 12 18 17 16 17 14 12 12 8 7 9 11 12 15 16 16 17 18 22 22 24 20 21 21 21 13 11 7 5 7 13 21 22 16 16 18 21 17 16 14 13 8
11 19 18 19 19 15 15 14 12 10 7 10 13 14 16 17 18 21 22 22 22 22 20 22 25 22 19 13 10 8 12 19 22 23 19 14 13 19 22 16 15 12 5
23 21 19 19 19 17 15 13 10 7 7 11 11 13 14 17 19 22 23 26 28 25 22 25 27 26 26 20 13 15 13 19 21 21 19 17 16 16 22 20 19 16 9
23 22 19 20 20 17 14 11 8 6 8 9 10 11 14 16 19 22 25 28 29 28 25 24 26 28 28 24 18 19 19 23 19 15 15 15 14 10 15 18 17 22 17
24 22 20 19 18 14 11 9 7 5 6 6 7 11 13 16 17 21 25 27 29 30 29 29 26 24 24 26 26 20 21 23 18 19 17 18 16 10 7 9 13 14 17
25 24 20 19 16 13 10 6 6 4 5 7 8 10 11 14 17 21 24 26 28 31 31 30 30 29 25 23 22 25 26 22 21 22 19 16 17 17 13 13 9 9 14
24 24 21 17 15 12 7 4 3 4 5 7 8 9 11 12 17 20 24 26 28 31 32 33 34 31 30 29 25 24 24 25 23 22 23 22 19 18 18 15 12 13 13
22 21 19 17 14 10 6 3 2 4 6 8 8 7 9 12 17 20 23 26 28 29 32 33 33 34 33 31 29 27 26 26 25 26 24 25 25 25 24 20 16 18 17
17 15 15 15 12 9 7 2 0 4 7 10 10 9 10 11 14 17 20 23 27 30 31 32 33 33 32 32 32 30 28 27 26 27 29 28 28 29 30 30 24 21 18
20 19 15 13 12 10 8 5 4 6 9 11 12 13 14 15 16 18 20 24 27 28 29 32 32 33 33 32 32 31 30 28 28 28 31 33 34 33 33 33 32 31 24
18 17 17 16 14 14 13 11 8 8 10 12 13 14 16 18 18 19 21 24 26 27 29 30 32 34 35 35 34 33 30 29 29 29 30 36 38 40 38 35 32 31 27

GFSSE_250_spd_030.txt.gz
Wind_Speed
22 21 24 25 27 29 31 35 36 37 38 41 39 30 32 30 24 23 19 16 14 18 19 11 8 9 11 13 14 15 17 16 16 17 17 15 13 14 12 10 10 8 11
22 23 25 28 27 27 32 34 33 32 31 24 26 28 29 24 21 17 16 15 17 20 19 14 7 4 8 10 11 14 13 13 13 15 17 18 16 17 14 12 10 9 11
26 24 25 24 25 27 29 30 26 23 22 24 29 27 23 17 16 16 16 14 15 22 17 11 6 3 3 8 12 13 11 8 8 12 13 14 17 20 19 15 12 11 14
27 27 21 18 24 23 20 19 18 18 22 28 22 20 15 15 17 16 15 16 16 19 24 4 4 5 4 4 6 4 3 5 3 5 10 11 16 20 19 17 15 14 15
26 22 11 18 20 18 20 17 19 21 23 22 15 12 14 16 17 16 17 20 19 22 25 14 6 7 4 5 2 2 3 4 5 8 8 8 10 16 17 20 17 16 15
25 15 15 17 17 20 21 20 19 17 17 11 9 11 14 14 17 17 18 19 21 23 28 24 12 8 7 3 4 6 8 7 8 8 7 8 12 19 17 19 17 14 13
22 16 17 16 18 17 15 13 11 11 7 6 8 13 11 13 16 18 19 20 22 24 26 24 16 9 7 8 9 7 7 9 10 12 11 9 12 14 16 15 14 12 11
21 19 17 17 15 16 11 8 7 5 6 11 11 11 10 11 15 20 19 19 21 23 23 23 20 11 8 9 10 11 13 11 13 13 14 14 15 15 18 13 10 10 7
19 20 17 15 11 9 5 5 3 8 15 13 11 10 9 11 15 20 20 20 21 22 21 19 19 16 13 12 11 12 14 15 10 12 15 18 16 17 18 6 8 11 8
21 16 14 8 7 3 3 7 11 15 16 14 10 7 5 10 15 20 20 20 19 19 20 17 18 19 17 15 14 14 12 10 14 17 18 18 20 18 14 13 10 8 10
14 8 4 4 2 2 8 12 15 16 13 12 10 8 8 10 14 19 20 19 19 19 18 18 16 18 19 16 16 16 16 16 17 16 17 15 14 14 12 19 21 15 13
3 2 0 4 3 10 14 14 15 13 11 10 8 10 12 13 17 17 19 20 21 20 19 18 16 14 11 8 19 20 21 19 18 17 17 19 17 16 15 14 11 17 22
4 7 6 4 10 13 15 13 12 11 10 7 10 11 14 16 17 18 18 21 23 21 19 18 13 9 9 5 11 18 17 21 21 21 21 21 22 16 13 13 11 10 12
5 5 5 12 13 13 14 12 13 11 6 10 12 14 16 17 18 17 19 20 22 20 20 21 22 18 11 9 13 10 13 18 24 27 22 23 23 19 19 16 15 10 5
2 5 11 15 13 16 16 15 13 9 9 13 13 16 18 19 19 20 19 20 19 20 24 24 24 23 16 18 12 10 10 18 24 25 21 20 18 18 21 19 17 15 5
4 11 17 16 18 16 16 13 12 12 12 13 14 16 19 19 21 23 23 22 22 22 23 25 25 27 23 15 15 11 12 21 21 19 22 19 16 19 20 22 18 14 15
10 19 17 19 19 15 15 15 14 13 13 13 15 15 18 21 21 22 24 26 26 22 22 23 25 26 25 19 13 19 15 18 19 18 16 17 16 14 14 17 16 18 10
17 22 21 20 17 16 15 12 12 12 11 13 13 15 15 14 19 20 24 27 26 23 25 22 22 24 25 27 21 17 16 18 21 18 14 15 14 13 11 11 13 16 14
25 24 23 19 18 15 13 11 10 9 8 11 10 13 14 15 17 20 25 27 27 28 28 28 29 28 27 24 21 21 21 17 16 15 18 15 16 13 12 11 7 8 11
27 26 25 21 18 14 11 9 7 6 8 10 9 11 12 15 19 22 24 26 27 27 28 29 29 30 30 29 26 23 23 22 21 18 18 18 17 16 15 16 17 7 5
26 26 26 23 18 14 9 5 5 6 7 8 9 10 12 15 18 21 24 26 26 27 29 30 30 29 30 31 31 29 25 25 22 23 23 24 23 21 22 18 19 12 11
23 24 24 21 18 14 10 5 3 3 6 7 7 7 11 14 17 20 23 24 25 26 28 29 30 30 31 32 31 29 29 29 25 24 26 28 30 30 29 28 26 19 19
19 21 20 18 16 13 9 6 4 1 4 7 7 9 11 12 13 15 18 21 23 24 25 27 28 29 31 31 31 31 29 28 28 26 26 28 30 32 33 32 31 29 26
18 19 18 17 15 11 8 6 3 0 3 6 8 10 11 12 13 15 16 18 21 22 22 24 26 29 30 30 31 32 32 26 27 25 24 28 31 35 38 38 32 29 29
23 22 21 20 17 12 10 8 5 3 4 6 7 7 9 10 13 15 15 18 20 21 22 23 25 28 29 30 32 34 35 28 31 27 25 29 34 34 35 37 35 32 33
27 24 22 20 18 14 12 11 10 8 7 7 8 9 10 11 13 14 15 17 19 21 22 24 26 26 29 32 33 34 35 34 33 31 29 28 36 38 38 39 39 36 36

GFSSE_250_spd_033.txt.gz
Wind_Speed
21 26 30 27 30 34 33 34 35 37 33 27 27 28 28 22 18 19 18 15 16 18 15 7 4 7 10 14 16 18 19 18 19 18 17 15 16 16 13 11 10 9 10
27 26 28 28 31 32 33 33 34 27 26 21 28 24 20 16 18 19 18 17 18 23 9 5 4 7 9 10 12 13 13 14 14 16 17 17 15 15 15 12 13 11 12
31 29 28 29 30 30 28 29 24 20 20 22 22 16 13 16 19 20 21 20 20 21 9 1 5 8 9 11 11 11 10 9 8 11 10 8 11 16 18 14 13 14 14
34 28 24 24 26 23 22 21 19 17 20 19 13 11 14 17 18 20 19 21 24 25 17 6 6 8 8 6 5 6 5 5 4 4 6 5 8 14 15 16 13 13 14
33 24 21 17 18 21 18 20 19 16 13 10 9 11 14 17 19 20 19 22 24 26 21 10 8 7 3 2 1 1 2 4 4 6 8 5 8 13 13 16 14 12 14
29 20 12 17 15 17 17 14 9 10 6 6 10 12 14 17 19 23 20 20 23 24 24 16 9 9 8 2 3 4 6 9 11 13 11 10 11 14 16 16 13 12 10
26 19 14 15 14 14 16 9 7 5 6 10 10 10 13 15 19 24 20 20 22 23 22 21 16 11 8 7 7 7 8 7 11 12 12 12 12 15 15 16 11 8 8
21 19 16 14 12 12 7 7 5 7 12 11 8 9 11 16 19 22 22 25 24 24 23 21 19 16 14 11 11 12 11 11 13 13 14 14 14 14 16 18 6 6 9
22 20 15 11 7 5 5 5 9 16 13 10 8 8 10 15 19 20 23 24 24 23 21 19 18 19 15 12 13 13 13 17 15 15 15 14 15 14 15 13 6 6 8
21 14 8 2 3 4 5 13 17 16 12 9 8 9 11 16 18 20 23 24 23 22 21 20 19 20 18 18 22 25 21 20 20 17 17 14 11 8 9 11 16 14 7
16 7 1 2 4 6 14 17 18 14 11 10 10 11 14 16 18 20 24 24 23 22 22 21 21 18 14 14 21 25 26 27 26 27 25 22 19 14 11 10 8 10 16
4 2 4 7 7 14 17 18 14 13 10 10 11 13 14 15 18 20 22 22 20 21 21 20 16 15 12 11 15 20 21 24 30 31 25 24 22 20 19 15 11 8 8
2 7 9 12 13 15 16 15 15 12 10 11 11 14 16 18 19 20 21 20 22 22 21 21 19 14 11 10 12 13 17 22 27 28 27 27 24 26 23 21 19 12 7
7 8 10 16 15 13 15 16 15 11 11 12 13 14 16 21 22 22 21 20 21 23 23 23 21 18 17 18 13 12 15 21 23 22 26 26 22 23 26 21 24 21 12
5 7 15 17 14 15 15 15 13 13 13 14 17 16 20 20 22 25 24 22 22 23 23 24 26 23 16 18 17 13 10 17 18 18 19 22 20 20 23 22 24 24 17
5 10 17 17 19 17 16 15 14 13 15 16 18 20 20 22 23 25 26 25 23 22 21 24 25 25 22 16 17 15 13 17 18 20 18 19 17 16 19 21 20 22 20
9 17 18 21 19 17 18 18 15 14 15 15 17 18 18 19 22 24 25 22 22 24 27 27 26 23 23 21 20 17 15 16 17 18 19 20 21 20 16 16 18 17 17
15 22 21 21 19 19 18 16 14 14 14 14 15 15 15 17 21 23 23 22 25 28 27 26 28 28 28 27 22 22 20 20 18 20 22 20 20 20 19 14 14 11 12
20 22 22 21 21 19 18 16 14 12 11 11 14 15 15 17 20 20 22 24 26 27 27 29 29 30 30 30 31 30 27 23 24 24 25 24 24 22 23 21 20 15 11
22 24 24 22 20 18 16 14 12 10 9 9 11 13 14 18 20 19 23 23 24 26 27 29 30 32 32 34 34 31 30 29 28 27 28 29 30 30 30 25 22 18 12
25 24 23 23 20 18 16 13 11 11 8 9 11 12 13 16 17 18 20 21 23 24 26 27 28 30 32 34 32 31 28 29 27 27 29 31 32 30 32 34 28 23 22
25 24 22 20 17 15 13 13 10 10 9 9 9 9 9 11 13 14 17 19 21 22 23 24 25 26 28 32 34 34 28 27 28 25 27 31 32 34 36 35 33 32 30
21 22 22 19 16 14 12 11 9 9 8 8 8 6 6 7 8 10 13 16 17 19 19 20 21 23 26 28 30 31 30 28 32 27 25 26 32 35 34 35 35 32 31
23 22 21 18 15 11 9 7 6 5 5 5 5 5 6 6 7 9 10 12 15 16 17 18 20 22 23 27 29 29 30 29 34 29 27 25 26 33 37 38 36 32 34
25 25 23 21 18 14 11 10 8 5 3 2 1 1 3 6 8 9 9 11 12 13 14 16 18 19 21 23 25 28 31 33 35 36 27 29 26 30 35 45 44 39 34
25 26 25 21 18 15 12 11 11 10 8 6 5 5 4 5 8 10 10 10 11 11 14 16 17 20 22 23 26 27 30 33 35 37 33 34 28 32 33 46 44 43 46

GFSSE_250_spd_036.txt.gz
Wind_Speed
21 28 24 28 29 33 36 37 35 35 29 27 23 25 19 14 15 18 19 18 19 18 4 7 8 11 13 18 17 17 16 16 17 17 15 13 11 11 10 10 11 11 12
20 31 29 25 32 36 35 31 29 27 24 22 22 18 12 13 19 23 21 22 25 19 3 8 10 10 12 13 15 13 12 11 13 10 10 11 14 14 10 10 11 12 14
36 32 25 25 30 31 29 25 24 22 18 19 16 9 11 18 22 21 20 22 25 21 8 8 11 10 10 12 10 8 7 6 5 7 5 5 10 13 13 15 10 12 14
35 30 25 23 23 23 22 22 21 19 14 12 8 8 15 21 25 20 21 23 25 26 15 10 11 10 8 6 5 3 5 4 4 3 5 4 6 10 13 14 13 12 13
29 27 21 15 17 20 18 19 11 7 9 6 6 11 16 21 25 22 22 21 24 26 21 14 12 6 3 2 2 3 3 6 6 6 7 7 9 10 14 13 13 11 11
33 25 18 14 16 16 16 11 6 7 5 7 8 13 18 18 22 21 20 20 24 25 23 15 11 10 11 9 5 4 6 9 10 11 12 12 12 13 12 12 13 9 8
36 26 19 17 14 12 10 7 6 5 6 9 11 13 15 20 21 22 20 21 23 24 22 19 16 14 12 10 7 6 8 11 12 11 11 11 12 14 12 14 15 6 9
36 26 21 18 12 7 6 6 3 8 10 11 12 13 17 21 21 21 20 21 23 23 21 19 18 13 13 15 17 16 16 16 13 13 11 10 10 13 13 15 9 5 6
35 24 19 11 4 3 3 3 12 13 14 12 13 14 16 19 19 21 21 24 24 23 22 20 20 20 21 24 25 24 25 26 24 19 18 11 8 8 9 10 10 7 8
31 20 14 5 1 4 8 14 14 14 16 14 12 12 15 17 18 19 22 23 23 24 22 19 17 13 10 14 19 21 25 30 30 26 21 20 19 10 9 9 8 13 15
20 15 6 4 6 12 16 14 14 16 14 14 13 14 15 16 16 18 22 21 21 24 22 19 18 16 15 15 18 21 24 26 27 29 27 23 21 17 18 14 7 6 5
13 3 5 8 14 17 16 14 15 14 14 13 13 15 15 15 16 18 21 21 23 23 22 20 19 18 14 12 14 15 20 22 25 26 28 26 20 24 17 20 17 10 8
4 6 8 15 18 16 14 16 15 12 12 12 13 16 17 18 18 19 19 21 23 24 25 23 21 18 18 15 12 13 18 21 23 23 26 24 22 24 22 20 17 18 10
8 8 12 18 17 16 16 17 13 12 14 14 15 14 17 19 21 20 20 21 22 23 26 26 24 19 18 17 15 14 15 20 19 21 24 24 23 22 19 23 24 25 18
7 8 16 19 17 17 17 15 13 13 15 17 17 18 21 21 22 23 23 26 24 24 23 27 25 23 20 22 20 18 17 19 20 22 21 23 24 23 22 20 22 20 21
7 10 16 18 18 19 17 15 13 14 16 18 18 18 21 23 24 26 26 27 27 28 27 27 28 26 23 24 24 21 22 22 25 27 26 25 22 22 20 20 20 21 21
8 14 17 18 20 20 19 16 15 16 15 15 16 19 22 23 24 25 27 28 29 28 28 28 28 30 29 28 28 26 26 26 27 29 29 30 30 26 23 20 19 17 18
11 18 17 20 22 22 20 17 16 16 15 13 14 17 19 21 23 23 25 27 28 27 29 30 31 31 32 30 28 30 30 31 32 31 31 31 31 31 26 25 21 19 17
14 21 21 20 23 22 21 18 16 16 14 14 15 17 20 20 20 23 23 25 25 26 28 30 32 32 31 31 28 30 31 29 30 33 36 36 37 37 34 31 28 25 23
17 22 22 23 24 22 21 18 16 15 13 13 14 15 17 17 19 21 20 23 24 24 25 27 28 30 32 31 28 30 32 30 25 27 31 36 36 37 37 33 33 30 26
18 22 23 23 22 21 19 17 15 14 13 13 13 13 14 15 17 18 18 18 19 18 19 19 21 24 28 31 30 27 29 34 26 25 25 26 34 39 36 36 34 35 34
20 23 23 22 20 19 17 16 14 14 14 14 11 11 10 10 12 14 14 14 14 17 16 16 18 20 23 24 26 28 30 33 33 27 26 24 27 33 44 41 43 36 38
25 25 23 22 20 17 17 15 13 11 12 12 11 9 7 7 8 9 10 10 10 11 12 14 15 16 18 20 23 25 29 32 33 34 28 23 21 26 30 43 50 52 50
28 27 24 21 18 15 13 12 11 10 9 9 8 7 7 6 5 5 5 5 6 8 10 11 13 15 18 20 21 24 27 30 34 39 41 20 17 21 27 31 32 39 45
29 27 28 25 21 19 17 13 11 8 6 5 4 4 4 4 5 4 4 5 7 9 10 12 14 15 17 19 20 22 25 28 33 38 40 31 19 18 25 34 32 28 37
30 28 28 27 23 19 14 12 11 9 7 5 3 2 2 2 4 4 5 7 8 10 13 14 16 16 18 19 21 23 25 28 32 35 39 39 32 21 32 31 35 25 31

GFSSE_250_spd_042.txt.gz
Wind_Speed
21 25 27 33 40 41 34 29 27 26 27 22 15 10 12 14 14 13 13 11 6 11 13 9 11 15 15 15 15 15 13 11 10 10 9 9 6 3 5 4 4 6 9
25 29 32 37 44 40 29 26 29 26 21 12 8 11 13 15 14 14 14 14 13 12 12 10 9 10 11 12 11 9 7 6 4 3 1 1 5 6 8 8 7 8 10
25 32 32 41 45 35 26 26 27 17 10 10 9 12 13 14 15 14 13 17 14 11 11 10 8 7 7 6 5 3 3 2 2 3 4 5 7 7 8 7 11 9 9
30 34 36 42 41 30 24 24 17 10 10 10 11 13 13 14 14 14 15 19 19 13 12 9 8 7 4 2 4 3 6 7 7 7 8 6 7 7 8 7 10 11 10
33 32 35 43 40 27 23 16 11 9 11 9 9 13 14 15 13 14 15 18 16 14 11 8 6 3 2 3 5 7 6 8 10 10 13 12 9 8 9 6 8 8 9
36 34 37 42 35 28 17 10 8 9 9 7 8 13 14 16 14 13 14 14 14 13 12 10 9 6 7 7 7 6 4 7 10 10 11 9 8 7 6 4 9 7 8
36 38 40 39 34 21 11 6 4 10 8 6 9 13 15 16 16 17 16 14 13 14 13 16 16 17 16 15 14 13 8 5 6 6 8 9 7 7 5 5 7 5 4
38 40 38 39 28 13 4 4 10 9 7 7 11 13 15 17 19 20 21 17 15 17 21 22 22 19 15 15 17 17 19 15 6 9 9 6 3 3 3 3 6 5 1
36 40 39 36 16 4 3 12 11 10 6 9 14 16 17 20 21 24 27 24 21 16 16 18 14 10 12 14 18 22 26 24 13 14 17 13 14 10 5 3 4 5 8
43 39 38 17 3 4 13 12 11 8 8 16 17 19 21 21 25 27 29 29 25 24 17 10 12 15 16 18 23 26 26 26 20 14 18 16 16 15 18 10 3 2 3
35 32 13 2 6 12 11 11 10 7 15 16 17 22 22 23 25 25 26 32 33 25 28 25 20 20 20 22 26 27 26 26 23 17 14 15 16 16 16 14 8 1 1
16 8 1 7 11 13 10 10 8 10 16 21 19 15 24 21 23 28 28 29 30 25 21 27 27 26 26 27 29 29 29 28 26 25 21 13 12 15 18 22 17 8 4
7 2 6 9 14 11 10 8 9 13 18 16 13 23 27 21 27 26 23 19 22 26 29 30 31 30 31 32 31 30 29 30 27 26 27 27 23 20 19 20 24 24 9
3 6 8 13 13 9 9 9 12 16 18 24 28 29 34 22 21 22 27 33 31 29 32 37 34 37 38 39 36 35 36 37 37 32 29 29 29 28 28 23 19 20 20
7 8 12 15 13 12 9 11 16 17 19 24 29 30 30 31 33 28 32 29 31 30 34 36 34 34 36 38 40 42 44 42 39 37 34 33 32 28 27 28 23 17 16
6 11 15 14 15 13 11 14 19 18 19 23 27 30 32 31 34 36 35 32 32 27 32 34 33 31 30 32 33 34 38 42 43 35 35 32 32 33 31 29 26 24 20
7 15 15 15 15 13 13 17 20 20 22 22 25 27 31 35 35 34 37 36 33 33 32 30 34 40 37 34 33 32 32 35 41 37 37 33 31 32 34 35 33 29 24
8 16 15 17 15 13 13 16 19 20 22 23 26 28 29 33 26 26 30 32 30 32 33 32 34 35 37 37 39 36 30 30 39 42 44 40 39 46 56 57 60 55 43
9 16 16 16 16 15 14 16 18 18 21 24 26 26 28 28 26 25 19 20 24 24 28 29 30 31 32 34 38 43 34 27 33 43 48 41 45 50 49 58 60 56 59
10 17 19 18 17 16 15 15 17 19 20 21 24 24 24 23 23 25 24 18 19 19 23 22 24 25 27 30 34 37 40 36 31 21 21 22 26 32 24 28 43 48 51
12 18 20 20 18 17 16 15 15 18 19 18 19 20 22 20 18 20 21 17 16 18 18 20 21 23 24 26 28 31 32 35 34 29 17 19 28 29 23 24 30 39 41
14 20 19 21 20 18 15 13 13 15 16 16 15 15 17 17 16 15 16 16 15 15 16 16 17 19 20 22 25 27 27 30 32 34 29 14 18 23 24 25 25 27 38
18 23 23 22 20 17 14 13 12 13 13 11 11 10 11 13 13 12 12 13 11 12 13 13 14 15 17 19 22 24 26 27 28 30 33 28 23 26 25 23 19 17 30
24 25 24 25 22 18 15 12 12 12 11 9 8 7 7 8 8 8 9 9 10 10 10 12 12 13 14 16 18 21 23 25 27 28 30 30 31 33 25 21 16 25 20
29 29 26 26 24 21 19 16 13 12 11 9 10 9 7 8 7 8 9 8 9 10 10 13 14 15 15 16 18 19 22 25 28 29 30 32 34 33 32 24 6 4 13
32 34 32 30 26 24 21 18 15 13 11 10 10 9 7 5 4 4 5 5 6 8 10 12 14 16 17 18 18 19 21 25 28 29 29 31 33 36 36 29 11 15 16

GFSSE_250_spd_045.txt.gz
Wind_Speed
32 33 36 40 38 41 40 35 30 27 13 10 6 9 12 15 15 13 12 7 5 15 11 10 13 15 15 15 13 12 10 9 8 8 9 6 3 3 3 3 5 7 9
33 34 39 38 39 42 39 31 28 14 11 7 8 13 15 15 15 13 10 6 13 15 12 11 11 11 12 11 9 7 5 4 1 1 4 4 3 1 5 3 5 6 8
36 39 36 38 38 38 41 28 16 11 8 7 11 15 15 14 13 11 10 11 13 13 11 9 9 7 6 6 3 3 3 2 4 7 7 6 7 8 8 6 6 7 7
35 38 40 38 41 38 38 20 11 7 6 9 13 16 13 13 11 11 12 13 12 12 10 8 7 6 2 1 4 2 6 6 5 6 8 12 11 9 11 7 7 7 7
39 39 38 39 39 37 32 12 8 5 5 10 14 13 14 13 12 11 10 12 11 9 7 6 6 2 3 6 6 6 8 9 10 12 13 14 15 13 12 9 7 6 6
35 35 35 37 39 38 20 6 3 5 6 11 12 13 15 15 14 10 9 11 10 10 7 5 3 2 3 2 2 5 8 10 13 13 17 18 16 13 10 9 7 7 4
37 36 36 39 35 26 10 4 5 5 7 9 11 14 16 16 16 13 11 10 11 13 11 10 11 11 8 8 7 4 5 6 5 9 8 8 11 10 10 11 10 7 5
35 37 37 36 30 15 2 6 6 5 8 9 13 16 19 21 20 18 17 15 15 17 15 14 11 9 11 16 15 13 11 7 3 7 7 6 1 4 6 9 10 11 9
37 38 35 27 16 2 5 9 5 7 10 15 17 21 23 27 28 26 25 18 17 18 13 12 9 13 17 19 20 17 13 10 8 9 10 10 8 6 1 7 7 8 11
38 35 21 11 1 6 12 7 5 10 15 22 21 27 27 26 31 33 26 27 24 18 17 18 17 19 20 21 20 18 14 13 7 8 8 8 8 6 6 2 4 5 10
30 12 6 5 8 13 10 6 7 15 15 16 21 26 28 26 24 32 30 21 22 24 23 23 22 21 23 24 22 21 21 18 14 10 5 6 7 9 10 8 2 6 4
9 5 4 8 12 11 9 5 11 16 18 21 27 23 30 24 24 14 22 28 29 28 29 29 28 29 29 29 29 29 26 22 23 20 16 12 8 8 10 11 9 4 3
8 3 10 12 13 10 8 6 11 12 12 14 14 18 23 20 16 23 31 34 35 35 37 38 37 40 39 37 35 36 33 29 26 26 24 23 23 20 13 14 16 12 8
2 9 10 14 11 11 6 10 15 16 20 22 22 19 19 20 31 33 35 35 36 35 35 35 37 38 40 39 41 36 32 29 29 29 31 28 26 25 23 18 16 16 14
7 9 14 16 12 12 11 14 19 21 25 24 27 32 26 23 25 28 32 31 27 27 26 27 30 30 29 33 38 37 29 29 28 32 36 38 32 30 26 23 20 17 13
6 12 15 14 14 12 17 17 20 23 31 30 30 31 32 25 31 31 31 32 34 36 39 38 37 35 31 30 34 35 34 48 56 55 51 56 54 49 40 33 27 20 18
6 14 15 13 15 16 19 21 21 23 30 34 33 34 32 33 34 30 32 33 34 33 34 34 37 43 38 30 37 40 53 49 51 53 51 55 54 49 48 46 44 37 27
8 12 13 15 15 19 19 23 23 24 26 31 34 35 31 33 34 31 31 31 30 29 30 31 34 37 41 42 40 46 40 37 30 34 32 34 33 41 48 45 41 38 35
6 11 13 16 16 19 19 21 22 24 27 29 27 25 22 29 21 21 24 25 24 26 26 26 28 30 35 36 37 26 23 19 20 27 34 36 32 34 41 38 40 37 34
8 14 14 17 18 19 20 19 20 21 24 25 24 22 23 22 16 21 20 21 21 23 24 23 24 27 28 30 29 30 30 25 20 25 25 32 33 29 28 34 41 44 44
11 15 16 17 19 20 20 18 20 20 19 21 20 19 18 18 18 16 16 17 19 19 20 18 21 23 24 25 26 27 28 30 29 23 23 28 31 30 25 31 33 35 44
13 20 21 20 20 20 20 18 19 19 17 18 17 17 16 15 13 13 14 15 16 15 15 16 18 19 20 22 22 24 26 28 29 29 28 28 28 24 19 18 28 38 38
15 22 23 23 21 20 19 19 18 17 15 13 14 12 13 14 12 9 10 11 12 11 11 14 16 17 17 18 19 21 23 23 24 25 27 30 32 34 28 12 24 28 34
16 26 27 27 26 23 21 19 19 18 15 11 11 11 11 10 7 6 7 8 10 10 12 14 16 15 16 16 17 18 20 21 22 23 25 26 29 32 29 10 16 11 26
22 29 28 29 28 26 24 22 20 20 18 14 11 12 11 11 9 7 6 7 8 8 10 13 14 16 16 16 17 18 19 20 22 22 23 25 27 29 29 19 4 8 18
24 31 32 32 30 29 27 24 23 22 20 17 14 14 13 11 10 8 6 4 5 7 9 11 12 14 15 16 18 19 20 21 22 24 24 26 27 30 29 24 8 6 11

GFSSE_250_spd_048.txt.gz
Wind_Speed
33 36 36 36 39 38 37 34 28 12 6 5 7 13 15 15 13 11 9 3 10 13 7 10 11 11 12 11 10 9 8 5 3 2 2 3 1 4 5 6 5 8 12
33 37 35 37 36 37 35 30 18 9 5 7 11 16 15 14 13 13 7 10 16 13 9 12 9 8 8 7 6 4 2 2 3 4 6 6 7 7 5 7 5 8 9
33 35 37 33 33 33 35 22 13 5 4 10 15 17 15 12 13 12 7 15 17 14 12 12 8 5 2 2 4 5 4 5 7 8 11 11 12 10 11 6 8 9 9
36 36 35 33 33 36 30 15 9 3 7 13 17 15 14 12 12 10 7 11 13 12 9 8 5 3 2 6 8 8 10 13 13 12 11 16 15 14 14 15 13 14 9
37 35 33 33 34 32 23 9 6 5 11 15 15 15 13 11 9 9 7 8 10 9 6 4 2 3 7 9 8 9 13 15 16 17 18 20 19 19 18 18 17 13 9
37 34 34 34 35 23 16 6 4 8 11 13 14 15 14 11 9 7 5 7 7 5 2 2 3 3 3 5 8 12 14 18 18 17 16 18 25 25 21 19 17 15 11
38 35 33 36 22 15 8 5 6 8 12 13 14 14 14 13 12 10 9 9 9 7 6 5 6 6 5 8 8 7 6 9 12 11 10 9 11 15 16 15 15 12 10
37 34 34 22 11 8 3 8 8 9 13 13 16 18 17 17 15 15 15 12 13 13 10 8 6 6 6 4 5 3 3 4 7 8 6 5 5 8 10 12 12 13 11
34 34 24 8 4 4 7 10 10 13 14 14 17 22 24 21 23 19 17 16 15 10 9 9 9 9 10 9 7 7 5 4 5 5 5 8 4 6 6 9 11 11 12
31 20 5 5 7 8 11 12 12 15 15 18 18 19 24 27 21 24 20 12 8 11 11 15 14 16 16 13 12 12 13 12 8 6 5 7 7 10 7 4 5 7 10
14 8 5 9 12 12 14 12 13 13 16 21 25 25 20 18 23 19 18 21 20 21 21 23 25 24 22 20 16 14 15 15 13 11 7 8 9 9 11 7 1 4 3
5 5 7 10 12 12 13 13 17 18 20 18 19 16 17 19 24 29 30 32 33 33 33 35 36 33 28 27 24 23 22 19 19 19 17 15 12 8 12 12 7 4 4
5 2 9 13 11 14 11 12 16 14 16 16 12 20 26 30 30 33 34 34 36 34 33 33 33 33 31 26 27 26 29 28 28 24 22 19 19 16 13 13 9 7 5
3 7 11 12 14 13 10 11 13 14 14 12 16 29 29 29 32 33 29 31 29 26 24 25 29 32 33 35 42 53 54 56 54 49 44 38 29 21 18 13 10 7 4
4 9 13 11 15 12 14 15 21 19 17 20 24 26 31 28 25 26 26 28 29 29 25 25 30 33 50 52 49 54 53 48 47 48 47 48 46 46 40 25 15 11 9
5 12 13 11 14 14 20 21 21 19 20 21 26 23 19 28 32 34 36 36 35 38 41 33 35 42 50 51 47 39 36 42 43 37 38 42 40 39 38 37 36 20 14
8 12 11 13 14 17 23 24 24 24 19 22 25 30 31 30 31 30 29 32 29 35 37 40 38 44 41 33 33 29 31 33 38 35 36 38 37 36 35 34 30 31 28
8 11 11 14 14 19 23 27 26 28 26 27 29 31 32 31 27 28 24 26 25 28 31 37 37 33 24 22 23 25 28 27 29 33 36 31 34 39 39 32 32 30 28
8 10 13 15 16 19 25 27 27 28 28 29 27 27 28 23 23 21 22 22 23 25 26 29 27 25 24 23 19 19 20 23 25 31 32 25 26 32 38 38 46 42 35
8 11 15 17 18 19 23 26 29 30 30 24 21 22 17 13 18 17 18 19 19 20 22 24 24 23 23 21 22 24 25 26 29 34 33 28 23 27 29 28 41 39 40
7 12 16 18 21 19 21 24 25 25 27 24 24 19 13 20 15 13 14 16 15 17 17 19 21 20 19 18 20 22 23 25 26 30 32 30 19 22 24 23 27 29 32
11 13 17 20 23 24 22 24 25 25 24 24 23 20 18 16 13 11 10 11 13 14 15 16 17 16 16 16 19 19 20 22 23 25 29 32 26 8 19 25 18 24 23
15 13 18 20 23 26 24 26 25 24 23 20 19 18 16 15 13 9 7 8 10 12 15 15 13 14 13 15 16 17 19 20 22 24 27 30 31 23 10 6 11 14 16
18 19 24 24 25 27 27 27 26 24 21 20 17 15 16 14 11 9 6 7 9 12 13 12 12 10 11 12 13 15 18 20 19 23 25 27 28 27 12 1 6 6 10
21 21 26 28 29 29 28 28 26 24 22 19 17 15 14 12 10 9 8 7 7 8 8 8 8 9 10 11 12 14 15 19 23 24 25 27 28 27 23 14 8 8 9
25 24 30 32 32 31 30 27 27 26 22 19 17 16 15 13 11 9 7 5 4 4 6 8 10 12 12 13 14 15 17 18 21 25 27 28 28 28 29 24 16 13 21